Flag for U.S.A. Weather past 2 weeks in Pittsburgh, Pennsylvania, U.S.A.

Now
59 °F

Clear.


Feels Like: 57 °F
Forecast: 44 / 58 °F
Wind: 13 mph from West

Location: Allegheny County Airport

Current Time: Oct 25, 2014 at 11:46:31 PM

Latest Report: Oct 25, 2014 at 10:53 PM


Visibility: 9 mi

Pressure: 29.77 "Hg

Humidity: 67%

Dew point: 48 °F

Location of PittsburghLocation

Historic Weather in Pittsburgh — Graph

°F

Pittsburgh temperature yesterday

Maximum temperature yesterday: 59 °F (at 3:53 PM)
Minimum temperature yesterday: 41 °F (at 6:53 AM)
Average temperature yesterday: 50 °F

Past Weeks' High & Low Weather Summary

 TemperatureHumidityPressure
High82 °F (Oct 14, 1:53 PM)90% (Oct 15, 1:00 AM)30.23 "Hg (Oct 15, 1:00 AM)
Low40 °F (Oct 12, 6:53 AM)35% (Oct 14, 1:53 PM)29.61 "Hg (Oct 17, 4:53 PM)
Average54 °F69%29.97 "Hg
* Reported Oct 10 9:53 PM — Oct 25 9:53 PM, Pittsburgh, Weather by CustomWeather, © 2014

Note: Actual official high and low records may vary slightly from our data, if they occured in-between our weather recording intervals... More about our weather records

Advertising

Pittsburgh weather history for previous 24 hours

 ConditionsComfort  
Time TempWeatherWind HumidityBarometerVisibility
9:53 PM
Oct 25
60 °FClear.14 mph67%29.77 "Hg9 mi
8:53 PM62 °FPassing clouds.16 mph62%29.75 "Hg10 mi
7:53 PM62 °FPassing clouds.14 mph60%29.76 "Hg10 mi
6:53 PM63 °FSunny.14 mph58%29.76 "Hg10 mi
5:53 PM64 °FSunny.16 mph56%29.77 "Hg10 mi
4:53 PM65 °FPassing clouds.17 mph52%29.78 "Hg10 mi
3:53 PM66 °FOvercast.14 mph49%29.78 "Hg10 mi
2:53 PM66 °FPassing clouds.17 mph45%29.80 "Hg10 mi
1:53 PM64 °FPassing clouds.20 mph52%29.83 "Hg10 mi
12:53 PM63 °FPartly sunny.21 mph54%29.89 "Hg10 mi
11:53 AM59 °FScattered clouds.15 mph60%29.91 "Hg9 mi
10:53 AM56 °FOvercast.10 mph60%29.95 "Hg10 mi
9:53 AM52 °FPartly sunny.7 mph61%29.97 "Hg10 mi
8:53 AM49 °FScattered clouds.9 mph64%29.97 "Hg10 mi
7:53 AM48 °FOvercast.9 mph66%29.98 "Hg10 mi
6:53 AM48 °FPassing clouds.9 mph66%29.98 "Hg10 mi
5:53 AM47 °FPassing clouds.8 mph71%29.96 "Hg10 mi
4:53 AM48 °FOvercast.8 mph68%29.98 "Hg10 mi
3:53 AM49 °FOvercast.7 mph64%29.99 "Hg10 mi
2:53 AM48 °FOvercast.8 mph66%30.00 "Hg10 mi
1:53 AM48 °FOvercast.8 mph66%30.01 "Hg10 mi
12:53 AM48 °FPassing clouds.9 mph63%30.01 "Hg10 mi
11:53 PM
Oct 24
48 °FOvercast.7 mph66%30.03 "Hg10 mi
Weather by CustomWeather, © 2014

See weather overviewHow to use our weather pages